Miscellaneous Local Product
Issued by NWS Hastings, NE

Home | Current Version | Previous Version | Graphics & Text | Print | Product List | Glossary On
Versions: 1 2 3 4 5 6 7 8 9 10 11 12 13 14 15 16 17 18 19 20 21 22 23 24 25 26 27 28 29 30 31 32 33 34 35 36 37 38 39 40 41 42 43 44 45 46 47 48 49 50
000
AXUS43 KGID 192210
MISGRI

GID CWA HOURLY WEATHER ROUNDUP
NATIONAL WEATHER SERVICE HASTINGS NE
500 PM CDT FRI SEP 19 2014

NOTE: "FAIR" INDICATES FEW OR NO CLOUDS BELOW 12,000 FEET WITH NO
SIGNIFICANT WEATHER AND/OR OBSTRUCTIONS TO VISIBILITY.

...SOUTH CENTRAL NEBRASKA...

CITY           SKY/WX    TMP DP  RH WIND       PRES   REMARKS
GRAND ISLAND   SUNNY     89  61  38 SW23G30   29.81R
HASTINGS       SUNNY     87  58  37 S17G29    29.82F
KEARNEY        SUNNY     88  64  45 S17       29.82S
ORD            SUNNY     88  64  44 S17G24    29.75F
YORK           SUNNY     86  64  48 SW16G24   29.80F
AURORA         SUNNY     87  58  37 S18       29.80R
LEXINGTON      SUNNY     92  57  30 SW15      29.80S HX  90
HOLDREGE       SUNNY     88  57  34 S22G29    29.81F
HEBRON         SUNNY     88  60  38 S16G26    29.83F

...NEBRASKA PANHANDLE...

CITY           SKY/WX    TMP DP  RH WIND       PRES   REMARKS
CHADRON        MOSUNNY   88  49  25 W14       29.83S
ALLIANCE       SUNNY     89  47  23 MISG      29.86S
SCOTTSBLUFF    MOSUNNY   89  48  24 NW7       29.87F
SIDNEY         SUNNY     92  44  19 NE7G17    29.89F

...WESTERN AND NORTH CENTRAL NEBRASKA...

CITY           SKY/WX    TMP DP  RH WIND       PRES   REMARKS
VALENTINE      SUNNY     89  53  29 N9        29.79S
AINSWORTH      SUNNY     86  56  36 N7        29.78S
ONEILL         SUNNY     88  65  46 N6        29.75S
BROKEN BOW     SUNNY     94  55  26 SW17G25   29.78F HX  92
IMPERIAL       SUNNY     92  50  23 S15       29.82F
NORTH PLATTE   SUNNY     92  55  28 SW10      29.78S HX  90
MCCOOK         SUNNY     92  57  30 S20G28    29.81S HX  90

...EASTERN NEBRASKA...

CITY           SKY/WX    TMP DP  RH WIND       PRES   REMARKS
NORFOLK        SUNNY     89  63  41 S22G30    29.74S HX  90
SO SIOUX CITY  SUNNY     89  65  44 SW17G25   29.74R HX  91
TEKAMAH        SUNNY     90  65  43 S20G30    29.75F HX  92
ALBION         SUNNY     88  61  40 SW17G25   29.77S
OMAHA EPPLEY   MOSUNNY   85  68  56 S20       29.79F
OFFUTT AFB     SUNNY     84  73  68 SE15      29.80F HX  91
MILLARD        SUNNY     89  66  46 S14G23    29.79F HX  91
LINCOLN        SUNNY     89  63  41 SW21G29   29.80F HX  90
NEBRASKA CITY    N/A     84  62  48 S17G26    29.85F
BEATRICE       SUNNY     89  65  46 S20G26    29.84S HX  90
FALLS CITY     SUNNY     82  69  64 S16       29.87F

...NORTHERN KANSAS...

CITY           SKY/WX    TMP DP  RH WIND       PRES   REMARKS
GOODLAND       MOSUNNY   88  57  34 S18G26    29.88F
HILL CITY      SUNNY     91  58  32 S18G25    29.85F HX  90
NORTON         CLEAR     91  52  25 S20G28    29.82F
SMITH CENTER   SUNNY     91  59  33 S17G23    29.85S HX  90
BELOIT         SUNNY     90  63  40 S15       29.84S HX  90
HAYS           SUNNY     90  61  37 S22G28    29.87F
RUSSELL        SUNNY     88  63  43 S16G23    29.87F
CONCORDIA      MOSUNNY   88  66  48 S17       29.86F HX  90
SALINA         MOSUNNY   90  66  45 S13G21    29.88F HX  92
TOPEKA         SUNNY     82  70  66 S12       29.92F



USA.gov is the U.S. government's official web portal to all federal, state and local government web resources and services.